2021-061B (49004 NORAD) Tracking and Keplerian Element Data

This shows tracking and keplerian element data for the satellite.

Feedback or suggestion? Click here.




ElementValue
Catalog49004
Name2021-061B
Epoch Orbit408
Epoch Day211.21274595
Epoch Year2021
RAAN278.031
Inclination97.536
Eccentricity0.001256
Argument of Perigee186.513
Mean Anonmoly258.5458
Mean Motion15.10152652
Decay Rate6.42E-06
L11 49004U 21061B 21211.21274595 .00000642 00000-0 43192-4 0 9994
L22 49004 97.5360 278.0310 0012560 186.5130 258.5458 15.10152652 4085

Live tracking and technical data element details for 2021-061B (NORAD 49004). 2021-061B can be tracked NOW for your location showing map with azimuth and elevation plus other details from your city location.

Track the satellite on the map from your city or location and see movement details for azimuth, elevation, latitude, longitude, range, height, and movement on the map or in text.







IsCatalogInMostPopularTable: catalog: 49004, numindb: 2
Update: records affected: 1



GetName: 49004 2021-061B

Hit Count: updated at: Sat, 31 Jul 2021 14:27:58 GMT